Weather History for Tahlequah, OK

Change the Weather History Date:

Wednesday, October 17, 2012

  Actual Average (KMKO) Record (KMKO)
Temperature  
Mean Temperature 62 °F -  
Max Temperature 73 °F 71 °F 93 °F (2005)
Min Temperature 44 °F 47 °F 34 °F (2002)
Degree Days  
Heating Degree Days 4    
Growing Degree Days 12 (Base 50)    
Moisture  
Dew Point 54 °F    
Average Humidity 77    
Maximum Humidity 88    
Minimum Humidity 45    
Precipitation  
Precipitation 0.00 in - - ()
Sea Level Pressure  
Sea Level Pressure 29.61 in    
Wind  
Wind Speed 8 mph (South)    
Max Wind Speed 24 mph    
Max Gust Speed 29 mph    
Visibility 10 miles    
Events      
Averages and records for this station are not official NWS values.
T = Trace of Precipitation, MM = Missing Value Source: NWS Daily Summary

Daily Weather History Graph

Daily Weather History Graph

Search for Another Location

Airport:

Trip Planner

Search our weather history database for the weather conditions in past years. The results will help you decide how hot, cold, wet, or windy it might be!

Date:

Astronomy

Oct. 17, 2012 Rise Set
Actual Time 7:28 AM CDT 6:40 PM CDT
Civil Twilight 7:03 AM CDT 7:06 PM CDT
Nautical Twilight 6:33 AM CDT 7:36 PM CDT
Astronomical Twilight 6:03 AM CDT 8:06 PM CDT
Moon 9:58 AM CDT (10/17) 8:23 PM CDT (10/17)
Length of Visible Light 12h 03m
Length of Day
11h 12m
Waxing Crescent, 7% of the Moon is Illuminated
Oct 17
Waxing Crescent
Oct 21
First Quarter
Oct 29
Full
Nov 6
Last Quarter
Nov 13
New

Hourly Weather History & Observations

Time (CDT) Temp. Dew Point Humidity Pressure Visibility Wind Dir Wind Speed Gust Speed Precip Events Conditions
12:15 AM 60.8 °F 53.6 °F 77% 29.66 in 10.0 mi SSE 8.1 mph - N/A   Clear
12:35 AM 60.8 °F 53.6 °F 77% 29.64 in 10.0 mi SSE 6.9 mph - N/A   Clear
12:55 AM 60.8 °F 51.8 °F 72% 29.64 in 10.0 mi SSE 8.1 mph - N/A   Clear
1:15 AM 60.8 °F 53.6 °F 77% 29.62 in 10.0 mi SSE 6.9 mph - N/A   Clear
1:35 AM 60.8 °F 53.6 °F 77% 29.61 in 10.0 mi SSE 8.1 mph 17.3 mph N/A   Clear
1:55 AM 60.8 °F 53.6 °F 77% 29.62 in 10.0 mi South 8.1 mph 16.1 mph N/A   Clear
2:15 AM 60.8 °F 55.4 °F 82% 29.62 in 10.0 mi South 6.9 mph - N/A   Clear
2:35 AM 60.8 °F 55.4 °F 82% 29.62 in 10.0 mi SSE 6.9 mph - N/A   Mostly Cloudy
2:55 AM 60.8 °F 55.4 °F 82% 29.61 in 10.0 mi SSE 6.9 mph - N/A   Overcast
3:15 AM 60.8 °F 55.4 °F 82% 29.59 in 10.0 mi SSE 9.2 mph - N/A   Overcast
3:35 AM 60.8 °F 55.4 °F 82% 29.59 in 10.0 mi SSE 8.1 mph 16.1 mph N/A   Overcast
3:55 AM 60.8 °F 57.2 °F 88% 29.58 in 10.0 mi SSE 9.2 mph - N/A   Overcast
4:15 AM 62.6 °F 57.2 °F 82% 29.58 in 10.0 mi SSE 8.1 mph - N/A   Overcast
4:35 AM 62.6 °F 59.0 °F 88% 29.57 in 10.0 mi South 10.4 mph - N/A   Overcast
4:55 AM 62.6 °F 59.0 °F 88% 29.56 in 10.0 mi South 11.5 mph 16.1 mph N/A   Overcast
5:15 AM 62.6 °F 59.0 °F 88% 29.56 in 10.0 mi South 10.4 mph 18.4 mph N/A   Overcast
5:35 AM 62.6 °F 59.0 °F 88% 29.55 in 10.0 mi South 9.2 mph 18.4 mph N/A   Overcast
5:55 AM 62.6 °F 59.0 °F 88% 29.54 in 10.0 mi South 11.5 mph - N/A   Overcast
6:15 AM 62.6 °F 59.0 °F 88% 29.54 in 10.0 mi South 12.7 mph 20.7 mph N/A   Overcast
6:35 AM 62.6 °F 59.0 °F 88% 29.54 in 10.0 mi South 11.5 mph 19.6 mph N/A   Overcast
6:55 AM 62.6 °F 59.0 °F 88% 29.53 in 10.0 mi South 11.5 mph 18.4 mph N/A   Overcast
7:15 AM 62.6 °F 59.0 °F 88% 29.53 in 10.0 mi SSE 8.1 mph - N/A   Overcast
7:35 AM 62.6 °F 59.0 °F 88% 29.52 in 10.0 mi SSE 6.9 mph - N/A   Overcast
7:55 AM 62.6 °F 59.0 °F 88% 29.52 in 10.0 mi SSE 10.4 mph 19.6 mph N/A   Overcast
8:15 AM 62.6 °F 59.0 °F 88% 29.51 in 10.0 mi SSE 9.2 mph 18.4 mph N/A   Overcast
8:35 AM 62.6 °F 59.0 °F 88% 29.52 in 10.0 mi South 8.1 mph 16.1 mph N/A   Overcast
8:55 AM 62.6 °F 59.0 °F 88% 29.54 in 10.0 mi South 8.1 mph 18.4 mph N/A   Overcast
9:15 AM 62.6 °F 59.0 °F 88% 29.54 in 10.0 mi South 8.1 mph - N/A   Overcast
9:35 AM 64.4 °F 59.0 °F 83% 29.54 in 10.0 mi SSE 9.2 mph - N/A   Overcast
9:55 AM 64.4 °F 59.0 °F 83% 29.54 in 10.0 mi SSE 4.6 mph - N/A   Overcast
10:15 AM 64.4 °F 60.8 °F 88% 29.53 in 10.0 mi SSE 9.2 mph - N/A   Mostly Cloudy
10:35 AM 64.4 °F 60.8 °F 88% 29.53 in 10.0 mi SSE 13.8 mph - N/A   Overcast
10:55 AM 66.2 °F 60.8 °F 83% 29.54 in 10.0 mi South 9.2 mph - N/A   Overcast
11:15 AM 66.2 °F 60.8 °F 83% 29.55 in 10.0 mi South 8.1 mph 16.1 mph N/A   Overcast
11:35 AM 66.2 °F 60.8 °F 83% 29.55 in 10.0 mi South 6.9 mph - N/A   Overcast
11:55 AM 66.2 °F 60.8 °F 83% 29.55 in 10.0 mi South 5.8 mph - N/A   Overcast
12:15 PM 68.0 °F 60.8 °F 78% 29.54 in 10.0 mi SSW 10.4 mph - N/A   Overcast
12:55 PM 69.8 °F 60.8 °F 73% 29.54 in 10.0 mi South 9.2 mph - N/A   Scattered Clouds
1:15 PM 69.8 °F 60.8 °F 73% 29.53 in 10.0 mi South 8.1 mph - N/A   Mostly Cloudy
1:35 PM 69.8 °F 60.8 °F 73% 29.51 in 10.0 mi South 6.9 mph - N/A   Scattered Clouds
1:55 PM 69.8 °F 60.8 °F 73% 29.53 in 10.0 mi SSW 6.9 mph - N/A   Scattered Clouds
2:15 PM 69.8 °F 62.6 °F 78% 29.52 in 10.0 mi South 9.2 mph - N/A   Mostly Cloudy
2:35 PM 71.6 °F 62.6 °F 73% 29.53 in 10.0 mi Calm Calm - N/A   Mostly Cloudy
2:55 PM 71.6 °F 62.6 °F 73% 29.54 in 10.0 mi SW 5.8 mph - N/A   Overcast
3:35 PM 73.4 °F 62.6 °F 69% 29.53 in 10.0 mi WSW 4.6 mph - N/A   Scattered Clouds
3:55 PM 73.4 °F 60.8 °F 65% 29.54 in 10.0 mi West 8.1 mph - N/A   Scattered Clouds
4:15 PM 73.4 °F 59.0 °F 61% 29.56 in 10.0 mi NW 15.0 mph 19.6 mph N/A   Mostly Cloudy
4:35 PM 73.4 °F 57.2 °F 57% 29.58 in 10.0 mi NW 24.2 mph 28.8 mph N/A   Scattered Clouds
4:55 PM 71.6 °F 55.4 °F 57% 29.58 in 10.0 mi NW 19.6 mph 28.8 mph N/A   Clear
5:15 PM 69.8 °F 53.6 °F 56% 29.59 in 10.0 mi NW 15.0 mph 24.2 mph N/A   Clear
5:55 PM 68.0 °F 48.2 °F 49% 29.63 in 10.0 mi NW 16.1 mph 24.2 mph N/A   Clear
6:15 PM 66.2 °F 44.6 °F 46% 29.64 in 10.0 mi NNW 20.7 mph 28.8 mph N/A   Clear
6:35 PM 64.4 °F 42.8 °F 45% 29.67 in 10.0 mi NW 10.4 mph 18.4 mph N/A   Clear
6:55 PM 62.6 °F 44.6 °F 52% 29.68 in 10.0 mi NW 8.1 mph - N/A   Clear
7:15 PM 60.8 °F 44.6 °F 55% 29.69 in 10.0 mi NW 4.6 mph - N/A   Clear
7:35 PM 59.0 °F 44.6 °F 59% 29.70 in 10.0 mi Calm Calm - N/A   Clear
7:55 PM 55.4 °F 44.6 °F 67% 29.70 in 10.0 mi Calm Calm - N/A   Clear
8:15 PM 53.6 °F 46.4 °F 77% 29.71 in 10.0 mi Calm Calm - N/A   Clear
8:35 PM 51.8 °F 46.4 °F 82% 29.72 in 10.0 mi Calm Calm - N/A   Clear
8:55 PM 50.0 °F 44.6 °F 82% 29.73 in 10.0 mi Calm Calm - N/A   Clear
9:15 PM 50.0 °F 44.6 °F 82% 29.74 in 10.0 mi Calm Calm - N/A   Clear
9:35 PM 50.0 °F 44.6 °F 82% 29.75 in 10.0 mi Calm Calm - N/A   Clear
9:55 PM 50.0 °F 44.6 °F 82% 29.76 in 10.0 mi NNW 5.8 mph - N/A   Clear
10:15 PM 51.8 °F 42.8 °F 71% 29.77 in 10.0 mi NW 4.6 mph - N/A   Clear
10:35 PM 51.8 °F 42.8 °F 71% 29.77 in 10.0 mi NNW 3.5 mph - N/A   Clear
10:55 PM 51.8 °F 41.0 °F 67% 29.78 in 10.0 mi Calm Calm - N/A   Clear
11:15 PM 50.0 °F 42.8 °F 76% 29.78 in 10.0 mi Calm Calm - N/A   Clear
11:35 PM 50.0 °F 39.2 °F 66% 29.79 in 10.0 mi West 3.5 mph - N/A   Clear
11:55 PM 44.6 °F 41.0 °F 87% 29.81 in 10.0 mi Calm Calm - N/A   Clear